軌道要素
Epoch 2017 May 7.0 TT = JDT 2457880.5
T 2017 Apr. 23.27227 TT MPCW
q 0.4939432 (2000.0) P Q
z -0.0029718 Peri. 87.14263 -0.01459179 +0.72911172
+/-0.0001223 Node 223.20301 -0.44963558 +0.60643453
e 1.0014679 Incl. 88.17746 +0.89309290 +0.31722745
From 627 observations 2017 Mar. 9-Apr. 24, mean residual 1".5.
|